Tucson Davis Monthan, AZ

9:46 AM MST on June 24, 2018 (GMT -0700)
Davis-Monthan Air Force Base

Weather History for KDMA - October, 2017

Change the Weather History Date:

Wednesday, October 25, 2017

  Actual Average Record
Temperature  
Mean Temperature 80 °F -  
Max Temperature 95 °F 81 °F 95 °F (2017)
Min Temperature 64 °F 52 °F 37 °F (1956)
Cooling Degree Days 16    
Growing Degree Days 30 (Base 50)    
Moisture  
Dew Point 31 °F    
Average Humidity 20    
Maximum Humidity 27    
Minimum Humidity 10    
Precipitation  
Precipitation 0.00 in - - ()
Sea Level Pressure  
Sea Level Pressure 29.91 in    
Wind  
Wind Speed 11 mph (SE)    
Max Wind Speed 28 mph    
Max Gust Speed 37 mph    
Visibility 10 miles    
Events      
Averages and records for this station are not official NWS values.
T = Trace of Precipitation, MM = Missing Value Source: NWS Daily Summary

Daily Weather History Graph

Daily Weather History Graph

Search for Another Location

Airport or City:

Astronomy

Oct. 25, 2017 Rise Set
Actual Time 6:34 AM MST 5:39 PM MST
Civil Twilight 6:09 AM MST 6:04 PM MST
Nautical Twilight 5:41 AM MST 6:33 PM MST
Astronomical Twilight 5:12 AM MST 7:01 PM MST
Moon 11:37 AM MST (10/25) 10:13 PM MST (10/25)
Length of Visible Light 11h 54m
Length of Day
11h 04m
Waxing Crescent, 30% of the Moon is Illuminated
Oct 25
Waxing Crescent
Oct 27
First Quarter
Nov 3
Full
Nov 10
Last Quarter
Nov 18
New

Hourly Weather History & Observations

Time (MST) Temp. Dew Point Humidity Pressure Visibility Wind Dir Wind Speed Gust Speed Precip Events Conditions
12:58 AM 71.4 °F 32.7 °F 24% 29.98 in 10.0 mi East 11.5 mph 21.9 mph N/A   Clear
1:58 AM 70.2 °F 31.6 °F 24% 29.97 in 10.0 mi SE 5.8 mph - N/A   Clear
2:58 AM 66.9 °F 30.9 °F 26% 29.97 in 10.0 mi ESE 8.1 mph - N/A   Clear
3:58 AM 66.9 °F 31.8 °F 27% 29.97 in 10.0 mi SE 6.9 mph - N/A   Clear
4:58 AM 68.7 °F 32.4 °F 26% 29.97 in 10.0 mi SE 9.2 mph - N/A   Clear
5:58 AM 67.3 °F 32.2 °F 27% 29.99 in 10.0 mi SE 8.1 mph - N/A   Clear
6:58 AM 69.8 °F 33.4 °F 26% 29.99 in 10.0 mi SE 17.3 mph - N/A   Clear
7:58 AM 74.1 °F 34.0 °F 23% 29.99 in 10.0 mi SE 27.6 mph 36.8 mph N/A   Clear
8:58 AM 76.8 °F 34.0 °F 21% 30.00 in 10.0 mi SE 27.6 mph 36.8 mph N/A   Clear
9:58 AM 79.3 °F 33.4 °F 19% 29.99 in 10.0 mi SE 26.5 mph 33.4 mph N/A   Clear
10:58 AM 82.8 °F 33.4 °F 17% 29.97 in 10.0 mi SE 20.7 mph 27.6 mph N/A   Clear
11:58 AM 86.2 °F 33.1 °F 15% 29.93 in 10.0 mi SSE 15.0 mph - N/A   Clear
12:58 PM 90.3 °F 32.7 °F 13% 29.88 in 10.0 mi ESE 13.8 mph - N/A   Clear
1:58 PM 93.0 °F 30.7 °F 11% 29.85 in 10.0 mi East 8.1 mph - N/A   Clear
2:58 PM 95.4 °F 30.2 °F 10% 29.83 in 10.0 mi East 6.9 mph - N/A   Clear
3:58 PM 93.9 °F 29.1 °F 10% 29.81 in 10.0 mi NE 6.9 mph - N/A   Clear
4:58 PM 92.7 °F 30.4 °F 11% 29.81 in 10.0 mi NNW 5.8 mph - N/A   Clear
5:58 PM 85.3 °F 28.8 °F 13% 29.81 in 10.0 mi NNE 3.5 mph - N/A   Clear
6:58 PM 79.7 °F 30.9 °F 17% 29.83 in 10.0 mi NW 3.5 mph - N/A   Clear
7:58 PM 74.5 °F 30.7 °F 20% 29.84 in 10.0 mi Calm Calm - N/A   Clear
8:58 PM 71.8 °F 30.9 °F 22% 29.86 in 10.0 mi SSE 3.5 mph - N/A   Clear
9:58 PM 69.3 °F 32.0 °F 25% 29.86 in 10.0 mi South 8.1 mph - N/A   Clear
10:58 PM 66.6 °F 27.7 °F 23% 29.85 in 10.0 mi South 8.1 mph - N/A   Clear
11:58 PM 64.6 °F 28.9 °F 26% 29.85 in 10.0 mi SE 9.2 mph - N/A   Clear